Anniston, AL

2:40 AM CDT on June 25, 2017 (GMT -0500)
Anniston Metro

Weather History for KANB - May, 2013

Change the Weather History Date:

Monday, May 20, 2013

  Actual Average Record
Temperature  
Mean Temperature 74 °F 71 °F  
Max Temperature 85 °F 82 °F 95 °F (2006)
Min Temperature 62 °F 60 °F 41 °F (2002)
Cooling Degree Days 8    
Growing Degree Days 23 (Base 50)    
Moisture  
Dew Point 64 °F    
Average Humidity 72    
Maximum Humidity 93    
Minimum Humidity 51    
Precipitation  
Precipitation 0.00 in 0.13 in 1.82 in (2017)
Month to date precipitation 7.49 2.83  
Year to date precipitation 32.92 21.50  
Sea Level Pressure  
Sea Level Pressure 30.04 in    
Wind  
Wind Speed 3 mph (NE)    
Max Wind Speed 9 mph    
Max Gust Speed 13 mph    
Visibility 10 miles    
Events      
T = Trace of Precipitation, MM = Missing Value Source: NWS Daily Summary

Daily Weather History Graph

Daily Weather History Graph

Search for Another Location

Airport or City:

Trip Planner

Search our weather history database for the weather conditions in past years. The results will help you decide how hot, cold, wet, or windy it might be!

Date:

Astronomy

May. 20, 2013 Rise Set
Actual Time 5:39 AM CDT 7:40 PM CDT
Civil Twilight 5:11 AM CDT 8:08 PM CDT
Nautical Twilight 4:37 AM CDT 8:42 PM CDT
Astronomical Twilight 4:01 AM CDT 9:19 PM CDT
Moon 3:00 PM CDT (5/20) 2:19 AM CDT (5/20)
Length of Visible Light 14h 57m
Length of Day
14h 01m
Waxing Gibbous, 75% of the Moon is Illuminated
May 20
Waxing Gibbous
May 24
Full
May 31
Last Quarter
Jun 8
New
Jun 16
First Quarter

Hourly Weather History & Observations

Time (CDT) Temp. Heat Index Dew Point Humidity Pressure Visibility Wind Dir Wind Speed Gust Speed Precip Events Conditions
1:53 AM 64.0 °F - 61.0 °F 90% 30.02 in 10.0 mi ENE 4.6 mph - N/A   Clear
4:53 AM 62.1 °F - 60.1 °F 93% 30.02 in 10.0 mi NE 5.8 mph - 0.01 in   Clear
5:37 AM 62.6 °F - 60.8 °F 94% 30.05 in 10.0 mi ENE 3.5 mph - N/A   Mostly Cloudy
5:48 AM 62.6 °F - 60.8 °F 94% 30.06 in 10.0 mi ENE 4.6 mph - N/A   Scattered Clouds
5:53 AM 62.1 °F - 60.1 °F 93% 30.05 in 10.0 mi Calm Calm - N/A   Scattered Clouds
6:14 AM 62.6 °F - 60.8 °F 94% 30.07 in 10.0 mi NE 4.6 mph - N/A   Mostly Cloudy
6:53 AM 64.0 °F - 61.0 °F 90% 30.06 in 10.0 mi NE 5.8 mph - N/A   Overcast
8:53 AM 69.1 °F - 63.0 °F 81% 30.09 in 10.0 mi NE 4.6 mph - N/A   Overcast
9:53 AM 72.0 °F - 64.0 °F 76% 30.10 in 10.0 mi Calm Calm - N/A   Overcast
10:29 AM 75.2 °F - 66.2 °F 73% 30.12 in 10.0 mi Calm Calm - N/A   Overcast
10:53 AM 77.0 °F - 68.0 °F 74% 30.10 in 8.0 mi WSW 4.6 mph - N/A   Partly Cloudy
11:53 AM 81.0 °F 83.3 °F 66.9 °F 62% 30.08 in 10.0 mi North - - N/A   Mostly Cloudy
1:53 PM 82.0 °F 83.8 °F 64.9 °F 56% 30.05 in 10.0 mi West 5.8 mph - N/A   Mostly Cloudy
3:53 PM 82.9 °F 84.6 °F 64.9 °F 54% 30.02 in 10.0 mi Variable 4.6 mph - N/A   Clear
4:53 PM 84.0 °F 85.8 °F 64.9 °F 53% 30.00 in 10.0 mi Calm Calm - N/A   Partly Cloudy
5:53 PM 84.0 °F 86.3 °F 66.0 °F 55% 29.99 in 10.0 mi Calm Calm - N/A   Partly Cloudy
6:53 PM 82.0 °F 84.1 °F 66.0 °F 58% 29.99 in 10.0 mi Calm Calm - N/A   Clear
7:53 PM 75.0 °F - 69.1 °F 82% 30.00 in 10.0 mi Calm Calm - N/A   Clear
9:53 PM 72.0 °F - 68.0 °F 87% 30.00 in 10.0 mi Calm Calm - N/A   Clear
10:53 PM 69.1 °F - 66.9 °F 93% 30.00 in 8.0 mi Calm Calm - N/A   Clear
11:53 PM 68.0 °F - 66.0 °F 93% 30.00 in 8.0 mi Calm Calm - N/A   Clear